Time,TemperatureF,DewpointF,PressureIn,WindDirection,WindDirectionDegrees,WindSpeedMPH,WindSpeedGustMPH,Humidity,HourlyPrecipIn,Conditions,Clouds,dailyrainin,SolarRadiationWatts/m^2,SoftwareType,DateUTC
2013-12-07 00:01:00,30.0,30.0,30.13,East,95,2.0,6.0,100,0.00,,,0.00,1767,WeatherCatV1.15B25,2013-12-07 05:01:00,
2013-12-07 00:06:00,30.0,30.0,30.13,East,95,1.0,5.0,100,0.00,,,0.00,1767,WeatherCatV1.15B25,2013-12-07 05:06:00,
2013-12-07 00:11:00,30.0,30.0,30.12,East,95,0.0,3.0,100,0.00,,,0.00,1767,WeatherCatV1.15B25,2013-12-07 05:11:00,
2013-12-07 00:16:00,30.0,30.0,30.13,East,95,2.0,4.0,100,0.00,,,0.00,1767,WeatherCatV1.15B25,2013-12-07 05:16:00,
2013-12-07 00:17:00,30.1,30.1,30.13,East,95,5.0,5.0,100,0.00,,,0.00,1767,WeatherCatV1.15B25,2013-12-07 05:17:00,
2013-12-07 00:22:00,29.9,29.7,30.12,East,95,0.0,3.0,99,0.00,,,0.00,1767,WeatherCatV1.15B25,2013-12-07 05:22:00,
2013-12-07 00:27:00,29.9,29.7,30.12,East,95,5.0,5.0,99,0.00,,,0.00,1767,WeatherCatV1.15B25,2013-12-07 05:27:00,
2013-12-07 00:32:00,29.9,29.7,30.12,East,95,0.0,7.0,99,0.00,,,0.00,1767,WeatherCatV1.15B25,2013-12-07 05:32:00,
2013-12-07 00:37:00,29.8,29.6,30.11,East,95,2.0,5.0,99,0.00,,,0.00,1767,WeatherCatV1.15B25,2013-12-07 05:37:00,
2013-12-07 00:42:00,29.9,29.7,30.11,East,95,1.0,5.0,99,0.00,,,0.00,1767,WeatherCatV1.15B25,2013-12-07 05:42:00,
2013-12-07 00:47:00,29.8,29.6,30.10,East,95,3.0,4.0,99,0.00,,,0.00,1767,WeatherCatV1.15B25,2013-12-07 05:47:00,
2013-12-07 00:52:00,29.7,29.5,30.10,East,95,1.0,7.0,99,0.00,,,0.00,1767,WeatherCatV1.15B25,2013-12-07 05:52:00,
2013-12-07 00:57:00,29.8,29.6,30.11,East,95,7.0,7.0,99,0.00,,,0.00,1767,WeatherCatV1.15B25,2013-12-07 05:57:00,
2013-12-07 01:02:00,29.7,29.5,30.09,East,95,5.0,9.0,99,0.00,,,0.00,1767,WeatherCatV1.15B25,2013-12-07 06:02:00,
2013-12-07 01:07:00,29.7,29.5,30.10,East,95,2.0,5.0,99,0.00,,,0.00,1767,WeatherCatV1.15B25,2013-12-07 06:07:00,
2013-12-07 01:12:00,29.7,29.5,30.10,East,95,3.0,5.0,99,0.00,,,0.00,1767,WeatherCatV1.15B25,2013-12-07 06:12:00,
2013-12-07 01:17:00,29.6,29.4,30.12,East,95,1.0,6.0,99,0.00,,,0.00,1767,WeatherCatV1.15B25,2013-12-07 06:17:00,
2013-12-07 01:22:00,29.6,29.4,30.11,East,95,3.0,5.0,99,0.00,,,0.00,1767,WeatherCatV1.15B25,2013-12-07 06:22:00,
2013-12-07 01:27:00,29.6,29.4,30.11,East,95,2.0,4.0,99,0.00,,,0.00,1767,WeatherCatV1.15B25,2013-12-07 06:27:00,
2013-12-07 01:32:00,29.5,29.3,30.11,East,95,0.0,2.0,99,0.00,,,0.00,1767,WeatherCatV1.15B25,2013-12-07 06:32:00,
2013-12-07 01:37:00,29.5,29.3,30.10,East,95,2.0,5.0,99,0.00,,,0.00,1767,WeatherCatV1.15B25,2013-12-07 06:37:00,
2013-12-07 01:42:00,29.5,29.3,30.10,East,95,2.0,6.0,99,0.00,,,0.00,1767,WeatherCatV1.15B25,2013-12-07 06:42:00,
2013-12-07 01:47:00,29.4,29.2,30.11,East,95,0.0,7.0,99,0.00,,,0.00,1767,WeatherCatV1.15B25,2013-12-07 06:47:00,
2013-12-07 01:52:00,29.4,29.2,30.10,East,95,5.0,7.0,99,0.00,,,0.00,1767,WeatherCatV1.15B25,2013-12-07 06:52:00,
2013-12-07 01:57:00,29.5,29.3,30.11,East,95,3.0,5.0,99,0.00,,,0.00,1767,WeatherCatV1.15B25,2013-12-07 06:57:00,
2013-12-07 02:02:00,29.4,29.2,30.13,East,95,1.0,4.0,99,0.00,,,0.00,1767,WeatherCatV1.15B25,2013-12-07 07:02:00,
2013-12-07 02:07:00,29.4,29.2,30.13,East,95,5.0,5.0,99,0.00,,,0.00,1767,WeatherCatV1.15B25,2013-12-07 07:07:00,
2013-12-07 02:12:00,29.3,29.1,30.14,East,95,1.0,5.0,99,0.00,,,0.00,1767,WeatherCatV1.15B25,2013-12-07 07:12:00,
2013-12-07 02:17:00,29.3,29.1,30.15,East,95,2.0,5.0,99,0.00,,,0.00,1767,WeatherCatV1.15B25,2013-12-07 07:17:00,
2013-12-07 02:22:00,29.4,29.2,30.16,East,95,2.0,6.0,99,0.00,,,0.00,1767,WeatherCatV1.15B25,2013-12-07 07:22:00,
2013-12-07 02:27:00,29.4,29.2,30.16,East,95,0.0,1.0,99,0.00,,,0.00,1767,WeatherCatV1.15B25,2013-12-07 07:27:00,
2013-12-07 02:32:00,29.5,29.3,30.15,East,95,3.0,3.0,99,0.00,,,0.00,1767,WeatherCatV1.15B25,2013-12-07 07:32:00,
2013-12-07 02:37:00,29.4,29.2,30.15,East,95,1.0,4.0,99,0.00,,,0.00,1767,WeatherCatV1.15B25,2013-12-07 07:37:00,
2013-12-07 02:42:00,29.4,29.2,30.15,East,95,3.0,5.0,99,0.00,,,0.00,1767,WeatherCatV1.15B25,2013-12-07 07:42:00,
2013-12-07 02:47:00,29.4,29.2,30.15,East,95,2.0,5.0,99,0.00,,,0.00,1767,WeatherCatV1.15B25,2013-12-07 07:47:00,
2013-12-07 02:52:00,29.4,29.2,30.17,East,95,2.0,9.0,99,0.00,,,0.00,1767,WeatherCatV1.15B25,2013-12-07 07:52:00,
2013-12-07 02:57:00,29.4,29.2,30.16,East,95,3.0,3.0,99,0.00,,,0.00,1767,WeatherCatV1.15B25,2013-12-07 07:57:00,
2013-12-07 03:02:00,29.4,29.2,30.16,East,95,1.0,7.0,99,0.00,,,0.00,1767,WeatherCatV1.15B25,2013-12-07 08:02:00,
2013-12-07 03:07:00,29.4,29.2,30.16,East,95,3.0,3.0,99,0.00,,,0.00,1767,WeatherCatV1.15B25,2013-12-07 08:07:00,
2013-12-07 03:12:00,29.3,29.1,30.16,East,95,1.0,6.0,99,0.00,,,0.00,1767,WeatherCatV1.15B25,2013-12-07 08:12:00,
2013-12-07 03:17:00,29.3,29.1,30.16,East,95,0.0,5.0,99,0.00,,,0.00,1767,WeatherCatV1.15B25,2013-12-07 08:17:00,
2013-12-07 03:22:00,29.3,29.1,30.16,East,95,0.0,4.0,99,0.00,,,0.00,1767,WeatherCatV1.15B25,2013-12-07 08:22:00,
2013-12-07 03:27:00,29.3,29.1,30.16,East,95,0.0,4.0,99,0.00,,,0.00,1767,WeatherCatV1.15B25,2013-12-07 08:27:00,
2013-12-07 03:32:00,29.3,29.1,30.15,East,95,1.0,2.0,99,0.00,,,0.00,1767,WeatherCatV1.15B25,2013-12-07 08:32:00,
2013-12-07 03:37:00,29.3,29.1,30.16,East,95,2.0,3.0,99,0.00,,,0.00,1767,WeatherCatV1.15B25,2013-12-07 08:37:00,
2013-12-07 03:42:00,29.4,29.2,30.16,East,95,0.0,1.0,99,0.00,,,0.00,1767,WeatherCatV1.15B25,2013-12-07 08:42:00,
2013-12-07 03:47:00,29.4,29.2,30.17,East,95,0.0,4.0,99,0.00,,,0.00,1767,WeatherCatV1.15B25,2013-12-07 08:47:00,
2013-12-07 03:52:00,29.4,29.2,30.16,East,95,3.0,4.0,99,0.00,,,0.00,1767,WeatherCatV1.15B25,2013-12-07 08:52:00,
2013-12-07 03:57:00,29.3,29.1,30.16,East,95,2.0,2.0,99,0.00,,,0.00,1767,WeatherCatV1.15B25,2013-12-07 08:57:00,
2013-12-07 04:02:00,29.3,29.1,30.16,East,95,0.0,3.0,99,0.00,,,0.00,1767,WeatherCatV1.15B25,2013-12-07 09:02:00,
2013-12-07 04:07:00,29.3,29.1,30.17,East,95,0.0,0.0,99,0.00,,,0.00,1767,WeatherCatV1.15B25,2013-12-07 09:07:00,
2013-12-07 04:12:00,29.3,29.1,30.16,East,95,0.0,0.0,99,0.00,,,0.00,1767,WeatherCatV1.15B25,2013-12-07 09:12:00,
2013-12-07 04:17:00,29.3,29.1,30.16,East,95,0.0,0.0,99,0.00,,,0.00,1767,WeatherCatV1.15B25,2013-12-07 09:17:00,
2013-12-07 04:22:00,29.2,29.0,30.16,East,95,1.0,2.0,99,0.00,,,0.00,1767,WeatherCatV1.15B25,2013-12-07 09:22:00,
2013-12-07 04:27:00,29.2,29.0,30.16,East,95,2.0,3.0,99,0.00,,,0.00,1767,WeatherCatV1.15B25,2013-12-07 09:27:00,
2013-12-07 04:32:00,29.2,29.0,30.17,East,95,3.0,4.0,99,0.00,,,0.00,1767,WeatherCatV1.15B25,2013-12-07 09:32:00,
2013-12-07 04:37:00,29.2,29.0,30.17,East,95,0.0,3.0,99,0.00,,,0.00,1767,WeatherCatV1.15B25,2013-12-07 09:37:00,
2013-12-07 04:42:00,29.2,29.0,30.17,East,95,2.0,3.0,99,0.00,,,0.00,1767,WeatherCatV1.15B25,2013-12-07 09:42:00,
2013-12-07 04:47:00,29.2,29.0,30.18,East,95,0.0,0.0,99,0.00,,,0.00,1767,WeatherCatV1.15B25,2013-12-07 09:47:00,
2013-12-07 04:52:00,29.2,29.0,30.18,East,95,1.0,3.0,99,0.00,,,0.00,1767,WeatherCatV1.15B25,2013-12-07 09:52:00,
2013-12-07 04:57:00,29.2,29.0,30.18,East,95,1.0,2.0,99,0.00,,,0.00,1767,WeatherCatV1.15B25,2013-12-07 09:57:00,
2013-12-07 05:02:00,29.2,29.0,30.18,East,95,2.0,3.0,99,0.00,,,0.00,1767,WeatherCatV1.15B25,2013-12-07 10:02:00,
2013-12-07 05:07:00,29.2,29.0,30.18,East,95,0.0,1.0,99,0.00,,,0.00,1767,WeatherCatV1.15B25,2013-12-07 10:07:00,
2013-12-07 05:12:00,29.2,29.0,30.19,East,95,0.0,2.0,99,0.00,,,0.00,1767,WeatherCatV1.15B25,2013-12-07 10:12:00,
2013-12-07 05:17:00,29.1,28.9,30.18,East,95,0.0,0.0,99,0.00,,,0.00,1767,WeatherCatV1.15B25,2013-12-07 10:17:00,
2013-12-07 05:22:00,29.1,28.9,30.19,East,95,0.0,0.0,99,0.00,,,0.00,1767,WeatherCatV1.15B25,2013-12-07 10:22:00,
2013-12-07 05:27:00,29.2,29.0,30.18,East,95,0.0,0.0,99,0.00,,,0.00,1767,WeatherCatV1.15B25,2013-12-07 10:27:00,
2013-12-07 05:32:00,29.1,28.9,30.19,East,95,0.0,0.0,99,0.00,,,0.00,1767,WeatherCatV1.15B25,2013-12-07 10:32:00,
2013-12-07 05:37:00,29.1,28.9,30.19,East,95,0.0,0.0,99,0.00,,,0.00,1767,WeatherCatV1.15B25,2013-12-07 10:37:00,
2013-12-07 05:42:00,29.2,29.0,30.19,East,95,0.0,0.0,99,0.00,,,0.00,1767,WeatherCatV1.15B25,2013-12-07 10:42:00,
2013-12-07 05:47:00,29.1,28.9,30.20,East,95,0.0,0.0,99,0.00,,,0.00,1767,WeatherCatV1.15B25,2013-12-07 10:47:00,
2013-12-07 05:52:00,29.1,28.9,30.20,East,95,0.0,0.0,99,0.00,,,0.00,1767,WeatherCatV1.15B25,2013-12-07 10:52:00,
2013-12-07 05:57:00,29.2,29.0,30.20,East,95,0.0,0.0,99,0.00,,,0.00,1767,WeatherCatV1.15B25,2013-12-07 10:57:00,
2013-12-07 06:02:00,29.2,29.0,30.19,East,95,0.0,0.0,99,0.00,,,0.00,1767,WeatherCatV1.15B25,2013-12-07 11:02:00,
2013-12-07 06:07:00,29.1,28.9,30.19,East,95,0.0,0.0,99,0.00,,,0.00,1767,WeatherCatV1.15B25,2013-12-07 11:07:00,
2013-12-07 06:12:00,29.2,29.0,30.20,East,95,0.0,0.0,99,0.00,,,0.00,1767,WeatherCatV1.15B25,2013-12-07 11:12:00,
2013-12-07 06:17:00,29.2,29.0,30.20,East,95,0.0,0.0,99,0.00,,,0.00,1767,WeatherCatV1.15B25,2013-12-07 11:17:00,
2013-12-07 06:22:00,29.2,29.0,30.21,East,95,0.0,0.0,99,0.00,,,0.00,1767,WeatherCatV1.15B25,2013-12-07 11:22:00,
2013-12-07 06:27:00,29.2,29.0,30.22,East,95,0.0,0.0,99,0.00,,,0.00,1767,WeatherCatV1.15B25,2013-12-07 11:27:00,
2013-12-07 06:32:00,29.2,29.0,30.22,East,95,0.0,0.0,99,0.00,,,0.00,1767,WeatherCatV1.15B25,2013-12-07 11:32:00,
2013-12-07 06:37:00,29.2,29.0,30.22,East,95,0.0,0.0,99,0.00,,,0.00,1767,WeatherCatV1.15B25,2013-12-07 11:37:00,
2013-12-07 06:42:00,29.2,29.0,30.22,East,95,0.0,0.0,99,0.00,,,0.00,1767,WeatherCatV1.15B25,2013-12-07 11:42:00,
2013-12-07 06:47:00,29.2,29.0,30.22,East,95,0.0,0.0,99,0.00,,,0.00,1767,WeatherCatV1.15B25,2013-12-07 11:47:00,
2013-12-07 06:52:00,29.2,29.0,30.23,East,95,0.0,0.0,99,0.00,,,0.00,1767,WeatherCatV1.15B25,2013-12-07 11:52:00,
2013-12-07 06:57:00,29.2,29.0,30.23,East,95,0.0,0.0,99,0.00,,,0.00,1767,WeatherCatV1.15B25,2013-12-07 11:57:00,
2013-12-07 07:02:00,29.2,29.0,30.23,East,95,0.0,0.0,99,0.00,,,0.00,1767,WeatherCatV1.15B25,2013-12-07 12:02:00,
2013-12-07 07:07:00,29.2,29.0,30.24,East,95,0.0,0.0,99,0.00,,,0.00,1767,WeatherCatV1.15B25,2013-12-07 12:07:00,
2013-12-07 07:12:00,29.2,29.0,30.23,East,95,0.0,0.0,99,0.00,,,0.00,1767,WeatherCatV1.15B25,2013-12-07 12:12:00,
2013-12-07 07:17:00,29.2,29.0,30.24,East,95,0.0,0.0,99,0.00,,,0.00,1767,WeatherCatV1.15B25,2013-12-07 12:17:00,
2013-12-07 07:22:00,29.2,29.0,30.23,East,95,0.0,0.0,99,0.00,,,0.00,1767,WeatherCatV1.15B25,2013-12-07 12:22:00,
2013-12-07 07:27:00,29.2,29.0,30.24,East,95,0.0,0.0,99,0.00,,,0.00,1767,WeatherCatV1.15B25,2013-12-07 12:27:00,
2013-12-07 07:32:00,29.2,29.0,30.24,East,95,0.0,0.0,99,0.00,,,0.00,1767,WeatherCatV1.15B25,2013-12-07 12:32:00,
2013-12-07 07:37:00,29.3,29.1,30.24,East,95,0.0,0.0,99,0.00,,,0.00,1767,WeatherCatV1.15B25,2013-12-07 12:37:00,
2013-12-07 07:42:00,29.3,29.1,30.25,East,95,0.0,0.0,99,0.00,,,0.00,1767,WeatherCatV1.15B25,2013-12-07 12:42:00,
2013-12-07 07:47:00,29.3,29.1,30.25,East,95,0.0,0.0,99,0.00,,,0.00,1767,WeatherCatV1.15B25,2013-12-07 12:47:00,
2013-12-07 07:52:00,29.3,29.1,30.25,East,95,0.0,0.0,99,0.00,,,0.00,1767,WeatherCatV1.15B25,2013-12-07 12:52:00,
2013-12-07 07:57:00,29.3,29.1,30.26,East,95,0.0,0.0,99,0.00,,,0.00,1767,WeatherCatV1.15B25,2013-12-07 12:57:00,
2013-12-07 08:02:00,29.3,29.1,30.26,East,95,0.0,0.0,99,0.00,,,0.00,1767,WeatherCatV1.15B25,2013-12-07 13:02:00,
2013-12-07 08:07:00,29.3,29.1,30.26,East,95,0.0,0.0,99,0.00,,,0.00,1767,WeatherCatV1.15B25,2013-12-07 13:07:00,
2013-12-07 08:12:00,29.4,29.2,30.27,East,95,0.0,0.0,99,0.00,,,0.00,1767,WeatherCatV1.15B25,2013-12-07 13:12:00,
2013-12-07 08:17:00,29.5,29.3,30.27,East,95,0.0,0.0,99,0.00,,,0.00,1767,WeatherCatV1.15B25,2013-12-07 13:17:00,
2013-12-07 08:22:00,29.6,29.4,30.27,East,95,0.0,0.0,99,0.00,,,0.00,1765,WeatherCatV1.15B25,2013-12-07 13:22:00,
2013-12-07 08:27:00,29.6,29.4,30.27,East,95,0.0,0.0,99,0.00,,,0.00,1767,WeatherCatV1.15B25,2013-12-07 13:27:00,
2013-12-07 08:32:00,29.6,29.4,30.27,East,95,0.0,0.0,99,0.00,,,0.00,1765,WeatherCatV1.15B25,2013-12-07 13:32:00,
2013-12-07 08:37:00,29.7,29.5,30.28,East,95,0.0,0.0,99,0.00,,,0.00,1767,WeatherCatV1.15B25,2013-12-07 13:37:00,
2013-12-07 08:42:00,29.7,29.5,30.28,East,95,0.0,0.0,99,0.00,,,0.00,1765,WeatherCatV1.15B25,2013-12-07 13:42:00,
2013-12-07 08:47:00,29.8,29.6,30.28,East,95,0.0,0.0,99,0.00,,,0.00,1765,WeatherCatV1.15B25,2013-12-07 13:47:00,
2013-12-07 08:52:00,29.8,29.6,30.28,East,95,0.0,0.0,99,0.00,,,0.00,1765,WeatherCatV1.15B25,2013-12-07 13:52:00,
2013-12-07 08:57:00,29.9,29.7,30.28,NW,305,0.0,0.0,99,0.00,,,0.00,1765,WeatherCatV1.15B25,2013-12-07 13:57:00,
2013-12-07 09:02:00,30.1,29.9,30.29,NW,304,0.0,0.0,99,0.00,,,0.00,1765,WeatherCatV1.15B25,2013-12-07 14:02:00,
2013-12-07 09:07:00,30.2,30.0,30.29,NW,305,0.0,0.0,99,0.00,,,0.00,1763,WeatherCatV1.15B25,2013-12-07 14:07:00,
2013-12-07 09:12:00,30.3,30.1,30.29,NW,305,0.0,0.0,99,0.00,,,0.00,1760,WeatherCatV1.15B25,2013-12-07 14:12:00,
2013-12-07 09:17:00,30.3,30.1,30.29,WNW,300,0.0,0.0,99,0.00,,,0.00,1760,WeatherCatV1.15B25,2013-12-07 14:17:00,
2013-12-07 09:22:00,30.3,30.1,30.29,NW,323,0.0,0.0,99,0.00,,,0.00,1760,WeatherCatV1.15B25,2013-12-07 14:22:00,
2013-12-07 09:27:00,30.3,30.1,30.29,NW,313,0.0,0.0,99,0.00,,,0.00,1760,WeatherCatV1.15B25,2013-12-07 14:27:00,
2013-12-07 09:32:00,30.3,30.1,30.30,NW,313,0.0,0.0,99,0.00,,,0.00,1761,WeatherCatV1.15B25,2013-12-07 14:32:00,
2013-12-07 09:37:00,30.4,30.2,30.30,NW,313,0.0,0.0,99,0.00,,,0.00,1761,WeatherCatV1.15B25,2013-12-07 14:37:00,
2013-12-07 09:42:00,30.4,30.2,30.30,NW,313,0.0,0.0,99,0.00,,,0.00,1761,WeatherCatV1.15B25,2013-12-07 14:42:00,
2013-12-07 09:47:00,30.4,30.2,30.30,NW,313,0.0,0.0,99,0.00,,,0.00,1761,WeatherCatV1.15B25,2013-12-07 14:47:00,
2013-12-07 09:52:00,30.5,30.3,30.30,NW,313,0.0,0.0,99,0.00,,,0.00,1761,WeatherCatV1.15B25,2013-12-07 14:52:00,
2013-12-07 09:57:00,30.4,30.2,30.30,NW,313,0.0,0.0,99,0.00,,,0.00,1763,WeatherCatV1.15B25,2013-12-07 14:57:00,
2013-12-07 10:02:00,30.5,30.3,30.31,NW,313,0.0,0.0,99,0.00,,,0.00,1763,WeatherCatV1.15B25,2013-12-07 15:02:00,
2013-12-07 10:07:00,30.5,30.3,30.31,NW,313,0.0,0.0,99,0.00,,,0.00,1763,WeatherCatV1.15B25,2013-12-07 15:07:00,
2013-12-07 10:12:00,30.5,30.3,30.31,NW,313,0.0,0.0,99,0.00,,,0.00,1763,WeatherCatV1.15B25,2013-12-07 15:12:00,
2013-12-07 10:17:00,30.6,30.4,30.31,NW,313,0.0,0.0,99,0.00,,,0.00,1763,WeatherCatV1.15B25,2013-12-07 15:17:00,
2013-12-07 10:22:00,30.6,30.4,30.31,NW,313,0.0,0.0,99,0.00,,,0.00,1763,WeatherCatV1.15B25,2013-12-07 15:22:00,
2013-12-07 10:27:00,30.6,30.4,30.31,NW,313,0.0,0.0,99,0.00,,,0.00,1765,WeatherCatV1.15B25,2013-12-07 15:27:00,
2013-12-07 10:32:00,30.7,30.5,30.31,NW,317,0.0,0.0,99,0.00,,,0.00,1763,WeatherCatV1.15B25,2013-12-07 15:32:00,
2013-12-07 10:37:00,30.7,30.5,30.31,NNW,331,0.0,0.0,99,0.00,,,0.00,1765,WeatherCatV1.15B25,2013-12-07 15:37:00,
2013-12-07 10:42:00,30.7,30.5,30.31,NW,315,0.0,0.0,99,0.00,,,0.00,1765,WeatherCatV1.15B25,2013-12-07 15:42:00,
2013-12-07 10:47:00,30.8,30.6,30.31,NW,314,0.0,0.0,99,0.00,,,0.00,1765,WeatherCatV1.15B25,2013-12-07 15:47:00,
2013-12-07 10:52:00,30.9,30.7,30.31,NW,326,0.0,0.0,99,0.00,,,0.00,1765,WeatherCatV1.15B25,2013-12-07 15:52:00,
2013-12-07 10:57:00,31.0,30.8,30.31,NNW,329,0.0,0.0,99,0.00,,,0.00,1765,WeatherCatV1.15B25,2013-12-07 15:57:00,
2013-12-07 11:02:00,31.0,30.8,30.31,NW,318,0.0,0.0,99,0.00,,,0.00,1765,WeatherCatV1.15B25,2013-12-07 16:02:00,
2013-12-07 11:07:00,31.1,30.9,30.31,NW,321,0.0,0.0,99,0.00,,,0.00,1765,WeatherCatV1.15B25,2013-12-07 16:07:00,
2013-12-07 11:12:00,31.1,30.9,30.31,NW,310,0.0,0.0,99,0.00,,,0.00,1765,WeatherCatV1.15B25,2013-12-07 16:12:00,
2013-12-07 11:17:00,31.2,31.0,30.31,NW,309,0.0,0.0,99,0.00,,,0.00,1765,WeatherCatV1.15B25,2013-12-07 16:17:00,
2013-12-07 11:22:00,31.2,31.0,30.30,WNW,295,0.0,0.0,99,0.00,,,0.00,1765,WeatherCatV1.15B25,2013-12-07 16:22:00,
2013-12-07 11:27:00,31.2,31.0,30.30,NNW,327,0.0,0.0,99,0.00,,,0.00,1763,WeatherCatV1.15B25,2013-12-07 16:27:00,
2013-12-07 11:32:00,31.1,30.9,30.30,North,355,0.0,0.0,99,0.00,,,0.00,1765,WeatherCatV1.15B25,2013-12-07 16:32:00,
2013-12-07 11:37:00,31.1,30.9,30.30,WNW,303,0.0,0.0,99,0.00,,,0.00,1765,WeatherCatV1.15B25,2013-12-07 16:37:00,
2013-12-07 11:42:00,31.1,30.9,30.30,NW,315,0.0,0.0,99,0.00,,,0.00,1765,WeatherCatV1.15B25,2013-12-07 16:42:00,
2013-12-07 11:47:00,31.0,30.8,30.30,NW,306,0.0,0.0,99,0.00,,,0.00,1765,WeatherCatV1.15B25,2013-12-07 16:47:00,
2013-12-07 11:52:00,30.8,30.6,30.30,NW,313,0.0,0.0,99,0.00,,,0.00,1765,WeatherCatV1.15B25,2013-12-07 16:52:00,
2013-12-07 11:57:00,30.8,30.6,30.30,NW,310,0.0,0.0,99,0.00,,,0.00,1765,WeatherCatV1.15B25,2013-12-07 16:57:00,
2013-12-07 12:02:00,30.7,30.5,30.30,NNW,329,0.0,0.0,99,0.00,,,0.00,1765,WeatherCatV1.15B25,2013-12-07 17:02:00,
2013-12-07 12:07:00,30.7,30.5,30.30,NNW,337,0.0,0.0,99,0.00,,,0.00,1765,WeatherCatV1.15B25,2013-12-07 17:07:00,
2013-12-07 12:12:00,30.7,30.5,30.30,NW,319,0.0,0.0,99,0.00,,,0.00,1765,WeatherCatV1.15B25,2013-12-07 17:12:00,
2013-12-07 12:17:00,30.6,30.4,30.31,NW,309,0.0,0.0,99,0.00,,,0.00,1765,WeatherCatV1.15B25,2013-12-07 17:17:00,
2013-12-07 12:22:00,30.6,30.4,30.31,WNW,300,0.0,0.0,99,0.00,,,0.00,1765,WeatherCatV1.15B25,2013-12-07 17:22:00,
2013-12-07 12:27:00,30.6,30.4,30.31,NW,325,0.0,0.0,99,0.00,,,0.00,1767,WeatherCatV1.15B25,2013-12-07 17:27:00,
2013-12-07 12:32:00,30.7,30.5,30.31,NW,319,0.0,0.0,99,0.00,,,0.00,1767,WeatherCatV1.15B25,2013-12-07 17:32:00,
2013-12-07 12:37:00,30.8,30.6,30.30,NW,322,0.0,0.0,99,0.00,,,0.00,1767,WeatherCatV1.15B25,2013-12-07 17:37:00,
2013-12-07 12:42:00,30.9,30.7,30.31,NW,326,0.0,0.0,99,0.00,,,0.00,1767,WeatherCatV1.15B25,2013-12-07 17:42:00,
2013-12-07 12:47:00,30.8,30.6,30.30,NNW,327,0.0,0.0,99,0.00,,,0.00,1767,WeatherCatV1.15B25,2013-12-07 17:47:00,
2013-12-07 12:52:00,30.8,30.6,30.30,NW,319,0.0,0.0,99,0.00,,,0.00,1767,WeatherCatV1.15B25,2013-12-07 17:52:00,
2013-12-07 12:57:00,30.8,30.6,30.30,WNW,287,0.0,0.0,99,0.00,,,0.00,1767,WeatherCatV1.15B25,2013-12-07 17:57:00,
2013-12-07 13:02:00,30.8,30.6,30.30,NW,313,0.0,0.0,99,0.00,,,0.00,1767,WeatherCatV1.15B25,2013-12-07 18:02:00,
2013-12-07 13:07:00,30.7,30.5,30.30,NNW,327,0.0,0.0,99,0.00,,,0.00,1767,WeatherCatV1.15B25,2013-12-07 18:07:00,
2013-12-07 13:12:00,30.8,30.6,30.30,NNW,327,0.0,0.0,99,0.00,,,0.00,1767,WeatherCatV1.15B25,2013-12-07 18:12:00,
2013-12-07 13:17:00,30.7,30.5,30.30,NW,315,0.0,0.0,99,0.00,,,0.00,1767,WeatherCatV1.15B25,2013-12-07 18:17:00,
2013-12-07 13:22:00,30.6,30.4,30.30,NW,309,0.0,0.0,99,0.00,,,0.00,1767,WeatherCatV1.15B25,2013-12-07 18:22:00,
2013-12-07 13:27:00,30.6,30.4,30.30,NW,313,0.0,0.0,99,0.00,,,0.00,1767,WeatherCatV1.15B25,2013-12-07 18:27:00,
2013-12-07 13:32:00,30.6,30.4,30.30,NW,325,0.0,0.0,99,0.00,,,0.00,1767,WeatherCatV1.15B25,2013-12-07 18:32:00,
2013-12-07 13:37:00,30.6,30.4,30.30,NNW,330,0.0,0.0,99,0.00,,,0.00,1767,WeatherCatV1.15B25,2013-12-07 18:37:00,
2013-12-07 13:42:00,30.7,30.5,30.30,NW,317,0.0,0.0,99,0.00,,,0.00,1767,WeatherCatV1.15B25,2013-12-07 18:42:00,
2013-12-07 13:47:00,30.8,30.6,30.30,NW,321,0.0,0.0,99,0.00,,,0.00,1767,WeatherCatV1.15B25,2013-12-07 18:47:00,
2013-12-07 13:52:00,31.0,30.8,30.30,WNW,291,0.0,0.0,99,0.00,,,0.00,1767,WeatherCatV1.15B25,2013-12-07 18:52:00,
2013-12-07 13:57:00,31.0,30.8,30.30,WNW,291,0.0,0.0,99,0.00,,,0.00,1767,WeatherCatV1.15B25,2013-12-07 18:57:00,
2013-12-07 14:02:00,31.1,30.9,30.30,NW,324,0.0,0.0,99,0.00,,,0.00,1767,WeatherCatV1.15B25,2013-12-07 19:02:00,
2013-12-07 14:07:00,31.3,31.1,30.30,NW,321,0.0,0.0,99,0.00,,,0.00,1767,WeatherCatV1.15B25,2013-12-07 19:07:00,
2013-12-07 14:12:00,31.5,31.3,30.30,NNW,346,0.0,0.0,99,0.00,,,0.00,1767,WeatherCatV1.15B25,2013-12-07 19:12:00,
2013-12-07 14:17:00,31.4,31.2,30.31,NW,323,0.0,0.0,99,0.00,,,0.00,1767,WeatherCatV1.15B25,2013-12-07 19:17:00,
2013-12-07 14:22:00,31.4,31.2,30.31,NW,323,0.0,0.0,99,0.00,,,0.00,1767,WeatherCatV1.15B25,2013-12-07 19:22:00,
2013-12-07 14:27:00,31.5,31.3,30.31,NW,323,0.0,0.0,99,0.00,,,0.00,1767,WeatherCatV1.15B25,2013-12-07 19:27:00,
2013-12-07 14:32:00,31.5,31.3,30.31,NW,321,0.0,0.0,99,0.00,,,0.00,1765,WeatherCatV1.15B25,2013-12-07 19:32:00,
2013-12-07 14:37:00,31.5,31.3,30.31,NW,318,0.0,0.0,99,0.00,,,0.00,1765,WeatherCatV1.15B25,2013-12-07 19:37:00,
2013-12-07 14:42:00,31.5,31.3,30.31,NW,317,0.0,0.0,99,0.00,,,0.00,1765,WeatherCatV1.15B25,2013-12-07 19:42:00,
2013-12-07 14:47:00,31.3,30.8,30.31,NNW,346,0.0,0.0,98,0.00,,,0.00,1765,WeatherCatV1.15B25,2013-12-07 19:47:00,
2013-12-07 14:52:00,31.2,30.7,30.31,NW,325,0.0,0.0,98,0.00,,,0.00,1765,WeatherCatV1.15B25,2013-12-07 19:52:00,
2013-12-07 14:57:00,31.2,30.7,30.31,NNW,331,0.0,0.0,98,0.00,,,0.00,1765,WeatherCatV1.15B25,2013-12-07 19:57:00,
2013-12-07 15:02:00,31.1,30.6,30.31,NNW,333,0.0,0.0,98,0.00,,,0.00,1767,WeatherCatV1.15B25,2013-12-07 20:02:00,
2013-12-07 15:07:00,31.1,30.4,30.32,NNW,328,0.0,0.0,97,0.00,,,0.00,1767,WeatherCatV1.15B25,2013-12-07 20:07:00,
2013-12-07 15:12:00,31.2,30.5,30.32,North,5,0.0,0.0,97,0.00,,,0.00,1767,WeatherCatV1.15B25,2013-12-07 20:12:00,
2013-12-07 15:17:00,31.1,30.1,30.32,NNW,340,0.0,0.0,96,0.00,,,0.00,1767,WeatherCatV1.15B25,2013-12-07 20:17:00,
2013-12-07 15:22:00,31.1,30.1,30.33,NW,307,0.0,0.0,96,0.00,,,0.00,1767,WeatherCatV1.15B25,2013-12-07 20:22:00,
2013-12-07 15:27:00,30.9,29.6,30.33,NNW,327,0.0,0.0,95,0.00,,,0.00,1767,WeatherCatV1.15B25,2013-12-07 20:27:00,
2013-12-07 15:32:00,30.8,29.5,30.33,WNW,296,0.0,0.0,95,0.00,,,0.00,1767,WeatherCatV1.15B25,2013-12-07 20:32:00,
2013-12-07 15:37:00,30.8,29.3,30.34,NW,323,0.0,0.0,94,0.00,,,0.00,1768,WeatherCatV1.15B25,2013-12-07 20:37:00,
2013-12-07 15:42:00,30.7,29.2,30.33,NW,313,0.0,0.0,94,0.00,,,0.00,1768,WeatherCatV1.15B25,2013-12-07 20:42:00,
2013-12-07 15:47:00,30.5,28.7,30.34,NW,304,0.0,0.0,93,0.00,,,0.00,1768,WeatherCatV1.15B25,2013-12-07 20:47:00,
2013-12-07 15:52:00,30.5,28.7,30.34,NNW,329,0.0,0.0,93,0.00,,,0.00,1768,WeatherCatV1.15B25,2013-12-07 20:52:00,
2013-12-07 15:57:00,30.4,28.6,30.34,NNW,342,0.0,0.0,93,0.00,,,0.00,1768,WeatherCatV1.15B25,2013-12-07 20:57:00,
2013-12-07 16:02:00,30.2,28.4,30.35,NW,326,0.0,0.0,93,0.00,,,0.00,1768,WeatherCatV1.15B25,2013-12-07 21:02:00,
2013-12-07 16:07:00,30.1,28.1,30.35,NW,318,0.0,0.0,92,0.00,,,0.00,1768,WeatherCatV1.15B25,2013-12-07 21:07:00,
2013-12-07 16:12:00,30.1,28.1,30.35,NW,319,0.0,0.0,92,0.00,,,0.00,1770,WeatherCatV1.15B25,2013-12-07 21:12:00,
2013-12-07 16:17:00,29.9,27.9,30.35,NW,313,0.0,0.0,92,0.00,,,0.00,1770,WeatherCatV1.15B25,2013-12-07 21:17:00,
2013-12-07 16:22:00,29.8,27.5,30.35,NW,325,0.0,0.0,91,0.00,,,0.00,1770,WeatherCatV1.15B25,2013-12-07 21:22:00,
2013-12-07 16:27:00,29.7,27.4,30.35,NW,312,0.0,0.0,91,0.00,,,0.00,1770,WeatherCatV1.15B25,2013-12-07 21:27:00,
2013-12-07 16:32:00,29.6,27.3,30.36,NW,325,0.0,0.0,91,0.00,,,0.00,1770,WeatherCatV1.15B25,2013-12-07 21:32:00,
2013-12-07 16:37:00,29.4,26.8,30.36,NW,325,0.0,0.0,90,0.00,,,0.00,1770,WeatherCatV1.15B25,2013-12-07 21:37:00,
2013-12-07 16:42:00,29.3,26.7,30.36,NW,313,0.0,0.0,90,0.00,,,0.00,1770,WeatherCatV1.15B25,2013-12-07 21:42:00,
2013-12-07 16:47:00,29.2,26.4,30.36,NNW,327,0.0,0.0,89,0.00,,,0.00,1770,WeatherCatV1.15B25,2013-12-07 21:47:00,
2013-12-07 16:52:00,29.1,26.3,30.36,WNW,294,0.0,0.0,89,0.00,,,0.00,1772,WeatherCatV1.15B25,2013-12-07 21:52:00,
2013-12-07 16:57:00,28.9,26.1,30.37,NW,312,0.0,0.0,89,0.00,,,0.00,1772,WeatherCatV1.15B25,2013-12-07 21:57:00,
2013-12-07 17:02:00,28.7,25.9,30.37,NW,326,0.0,0.0,89,0.00,,,0.00,1772,WeatherCatV1.15B25,2013-12-07 22:02:00,
2013-12-07 17:07:00,28.5,25.7,30.37,NW,318,0.0,0.0,89,0.00,,,0.00,1772,WeatherCatV1.15B25,2013-12-07 22:07:00,
2013-12-07 17:12:00,28.4,25.6,30.37,NW,315,0.0,0.0,89,0.00,,,0.00,1772,WeatherCatV1.15B25,2013-12-07 22:12:00,
2013-12-07 17:17:00,28.2,25.4,30.37,WNW,302,0.0,0.0,89,0.00,,,0.00,1772,WeatherCatV1.15B25,2013-12-07 22:17:00,
2013-12-07 17:22:00,28.2,25.4,30.38,NW,319,0.0,0.0,89,0.00,,,0.00,1772,WeatherCatV1.15B25,2013-12-07 22:22:00,
2013-12-07 17:27:00,28.0,25.2,30.38,NW,319,0.0,0.0,89,0.00,,,0.00,1772,WeatherCatV1.15B25,2013-12-07 22:27:00,
2013-12-07 17:32:00,27.9,24.8,30.38,NNW,340,0.0,0.0,88,0.00,,,0.00,1772,WeatherCatV1.15B25,2013-12-07 22:32:00,
2013-12-07 17:37:00,27.8,24.7,30.39,NW,310,0.0,0.0,88,0.00,,,0.00,1772,WeatherCatV1.15B25,2013-12-07 22:37:00,
2013-12-07 17:42:00,27.6,24.5,30.38,NW,314,0.0,0.0,88,0.00,,,0.00,1772,WeatherCatV1.15B25,2013-12-07 22:42:00,
2013-12-07 17:47:00,27.5,24.1,30.39,NW,325,0.0,0.0,87,0.00,,,0.00,1772,WeatherCatV1.15B25,2013-12-07 22:47:00,
2013-12-07 17:52:00,27.5,24.1,30.39,NNW,342,0.0,0.0,87,0.00,,,0.00,1772,WeatherCatV1.15B25,2013-12-07 22:52:00,
2013-12-07 17:57:00,27.4,23.8,30.39,NNW,338,0.0,0.0,86,0.00,,,0.00,1772,WeatherCatV1.15B25,2013-12-07 22:57:00,
2013-12-07 18:02:00,27.3,23.7,30.40,NNW,336,0.0,0.0,86,0.00,,,0.00,1774,WeatherCatV1.15B25,2013-12-07 23:02:00,
2013-12-07 18:07:00,27.2,23.9,30.40,NNW,331,0.0,0.0,87,0.00,,,0.00,1774,WeatherCatV1.15B25,2013-12-07 23:07:00,
2013-12-07 18:12:00,27.1,23.8,30.40,NNW,327,0.0,0.0,87,0.00,,,0.00,1774,WeatherCatV1.15B25,2013-12-07 23:12:00,
2013-12-07 18:17:00,27.0,23.7,30.41,NW,315,0.0,0.0,87,0.00,,,0.00,1774,WeatherCatV1.15B25,2013-12-07 23:17:00,
2013-12-07 18:22:00,26.9,23.6,30.41,NW,309,0.0,0.0,87,0.00,,,0.00,1774,WeatherCatV1.15B25,2013-12-07 23:22:00,
2013-12-07 18:27:00,26.8,23.5,30.42,NW,313,0.0,0.0,87,0.00,,,0.00,1774,WeatherCatV1.15B25,2013-12-07 23:27:00,
2013-12-07 18:32:00,26.7,23.4,30.42,WNW,300,0.0,0.0,87,0.00,,,0.00,1774,WeatherCatV1.15B25,2013-12-07 23:32:00,
2013-12-07 18:37:00,26.7,23.4,30.42,WNW,300,0.0,0.0,87,0.00,,,0.00,1774,WeatherCatV1.15B25,2013-12-07 23:37:00,
2013-12-07 18:42:00,26.6,23.3,30.42,WNW,295,0.0,0.0,87,0.00,,,0.00,1774,WeatherCatV1.15B25,2013-12-07 23:42:00,
2013-12-07 18:47:00,26.5,23.2,30.42,WNW,299,0.0,0.0,87,0.00,,,0.00,1774,WeatherCatV1.15B25,2013-12-07 23:47:00,
2013-12-07 18:52:00,26.4,23.3,30.42,WNW,300,0.0,0.0,88,0.00,,,0.00,1774,WeatherCatV1.15B25,2013-12-07 23:52:00,
2013-12-07 18:57:00,26.3,23.2,30.42,NW,318,0.0,0.0,88,0.00,,,0.00,1774,WeatherCatV1.15B25,2013-12-07 23:57:00,
2013-12-07 19:02:00,26.2,22.9,30.43,NW,323,0.0,0.0,87,0.00,,,0.00,1774,WeatherCatV1.15B25,2013-12-08 00:02:00,
2013-12-07 19:07:00,26.2,22.9,30.43,NW,324,0.0,0.0,87,0.00,,,0.00,1774,WeatherCatV1.15B25,2013-12-08 00:07:00,
2013-12-07 19:12:00,26.2,22.9,30.44,NW,324,0.0,0.0,87,0.00,,,0.00,1774,WeatherCatV1.15B25,2013-12-08 00:12:00,
2013-12-07 19:17:00,26.2,22.9,30.44,NW,323,0.0,0.0,87,0.00,,,0.00,1774,WeatherCatV1.15B25,2013-12-08 00:17:00,
2013-12-07 19:22:00,26.2,22.9,30.44,NW,324,0.0,0.0,87,0.00,,,0.00,1774,WeatherCatV1.15B25,2013-12-08 00:22:00,
2013-12-07 19:27:00,26.1,22.8,30.44,NW,324,0.0,0.0,87,0.00,,,0.00,1774,WeatherCatV1.15B25,2013-12-08 00:27:00,
2013-12-07 19:32:00,26.0,22.7,30.44,NW,324,0.0,0.0,87,0.00,,,0.00,1774,WeatherCatV1.15B25,2013-12-08 00:32:00,
2013-12-07 19:37:00,26.0,22.7,30.45,NW,323,0.0,0.0,87,0.00,,,0.00,1774,WeatherCatV1.15B25,2013-12-08 00:37:00,
2013-12-07 19:42:00,25.9,22.6,30.45,NW,324,0.0,0.0,87,0.00,,,0.00,1774,WeatherCatV1.15B25,2013-12-08 00:42:00,
2013-12-07 19:47:00,25.8,22.5,30.45,NW,323,0.0,0.0,87,0.00,,,0.00,1774,WeatherCatV1.15B25,2013-12-08 00:47:00,
2013-12-07 19:52:00,25.7,22.6,30.46,NW,323,0.0,0.0,88,0.00,,,0.00,1774,WeatherCatV1.15B25,2013-12-08 00:52:00,
2013-12-07 19:57:00,25.7,22.4,30.45,NNW,335,0.0,0.0,87,0.00,,,0.00,1774,WeatherCatV1.15B25,2013-12-08 00:57:00,
2013-12-07 20:02:00,25.6,22.3,30.46,NNW,328,0.0,0.0,87,0.00,,,0.00,1775,WeatherCatV1.15B25,2013-12-08 01:02:00,
2013-12-07 20:07:00,25.6,22.3,30.46,NNW,329,0.0,0.0,87,0.00,,,0.00,1775,WeatherCatV1.15B25,2013-12-08 01:07:00,
2013-12-07 20:12:00,25.6,22.3,30.46,NNW,333,0.0,0.0,87,0.00,,,0.00,1775,WeatherCatV1.15B25,2013-12-08 01:12:00,
2013-12-07 20:17:00,25.5,22.2,30.47,NW,323,0.0,0.0,87,0.00,,,0.00,1775,WeatherCatV1.15B25,2013-12-08 01:17:00,
2013-12-07 20:22:00,25.5,22.2,30.47,NW,323,0.0,0.0,87,0.00,,,0.00,1775,WeatherCatV1.15B25,2013-12-08 01:22:00,
2013-12-07 20:27:00,25.4,22.1,30.47,NNW,328,0.0,0.0,87,0.00,,,0.00,1775,WeatherCatV1.15B25,2013-12-08 01:27:00,
2013-12-07 20:32:00,25.3,22.0,30.47,NW,326,0.0,0.0,87,0.00,,,0.00,1775,WeatherCatV1.15B25,2013-12-08 01:32:00,
2013-12-07 20:37:00,25.3,22.0,30.47,NNW,330,0.0,0.0,87,0.00,,,0.00,1775,WeatherCatV1.15B25,2013-12-08 01:37:00,
2013-12-07 20:42:00,25.2,22.2,30.47,NNW,327,0.0,0.0,88,0.00,,,0.00,1775,WeatherCatV1.15B25,2013-12-08 01:42:00,
2013-12-07 20:47:00,25.1,21.8,30.47,NW,322,0.0,0.0,87,0.00,,,0.00,1775,WeatherCatV1.15B25,2013-12-08 01:47:00,
2013-12-07 20:52:00,25.0,21.7,30.48,NW,322,0.0,0.0,87,0.00,,,0.00,1775,WeatherCatV1.15B25,2013-12-08 01:52:00,
2013-12-07 20:57:00,25.0,21.7,30.48,NW,325,0.0,0.0,87,0.00,,,0.00,1775,WeatherCatV1.15B25,2013-12-08 01:57:00,
2013-12-07 21:02:00,24.9,21.6,30.47,NW,322,0.0,0.0,87,0.00,,,0.00,1775,WeatherCatV1.15B25,2013-12-08 02:02:00,
2013-12-07 21:07:00,24.8,21.8,30.48,NW,315,0.0,0.0,88,0.00,,,0.00,1775,WeatherCatV1.15B25,2013-12-08 02:07:00,
2013-12-07 21:12:00,24.7,21.7,30.48,WNW,296,0.0,0.0,88,0.00,,,0.00,1775,WeatherCatV1.15B25,2013-12-08 02:12:00,
2013-12-07 21:17:00,24.6,21.6,30.48,WNW,299,0.0,0.0,88,0.00,,,0.00,1775,WeatherCatV1.15B25,2013-12-08 02:17:00,
2013-12-07 21:22:00,24.5,21.5,30.48,WNW,302,0.0,0.0,88,0.00,,,0.00,1775,WeatherCatV1.15B25,2013-12-08 02:22:00,
2013-12-07 21:27:00,24.4,21.4,30.48,WNW,292,0.0,0.0,88,0.00,,,0.00,1775,WeatherCatV1.15B25,2013-12-08 02:27:00,
2013-12-07 21:32:00,24.3,21.3,30.48,NW,319,0.0,0.0,88,0.00,,,0.00,1775,WeatherCatV1.15B25,2013-12-08 02:32:00,
2013-12-07 21:37:00,24.2,21.2,30.48,NW,318,0.0,0.0,88,0.00,,,0.00,1777,WeatherCatV1.15B25,2013-12-08 02:37:00,
2013-12-07 21:42:00,24.0,21.0,30.48,WNW,295,0.0,0.0,88,0.00,,,0.00,1777,WeatherCatV1.15B25,2013-12-08 02:42:00,
2013-12-07 21:47:00,23.9,20.9,30.48,NW,313,0.0,0.0,88,0.00,,,0.00,1777,WeatherCatV1.15B25,2013-12-08 02:47:00,
2013-12-07 21:52:00,23.9,20.6,30.48,NW,304,0.0,0.0,87,0.00,,,0.00,1777,WeatherCatV1.15B25,2013-12-08 02:52:00,
2013-12-07 21:57:00,23.9,20.6,30.48,NW,316,0.0,0.0,87,0.00,,,0.00,1777,WeatherCatV1.15B25,2013-12-08 02:57:00,
2013-12-07 22:02:00,23.9,20.6,30.48,NW,309,0.0,0.0,87,0.00,,,0.00,1777,WeatherCatV1.15B25,2013-12-08 03:02:00,
2013-12-07 22:07:00,23.9,20.6,30.48,NW,307,0.0,0.0,87,0.00,,,0.00,1777,WeatherCatV1.15B25,2013-12-08 03:07:00,
2013-12-07 22:12:00,23.8,20.5,30.48,WNW,294,0.0,0.0,87,0.00,,,0.00,1777,WeatherCatV1.15B25,2013-12-08 03:12:00,
2013-12-07 22:17:00,23.8,20.5,30.48,WNW,300,0.0,0.0,87,0.00,,,0.00,1777,WeatherCatV1.15B25,2013-12-08 03:17:00,
2013-12-07 22:22:00,23.7,20.4,30.49,NW,315,0.0,0.0,87,0.00,,,0.00,1777,WeatherCatV1.15B25,2013-12-08 03:22:00,
2013-12-07 22:27:00,23.6,20.3,30.49,NW,312,0.0,0.0,87,0.00,,,0.00,1777,WeatherCatV1.15B25,2013-12-08 03:27:00,
2013-12-07 22:32:00,23.6,20.3,30.49,WNW,300,0.0,0.0,87,0.00,,,0.00,1777,WeatherCatV1.15B25,2013-12-08 03:32:00,
2013-12-07 22:37:00,23.5,20.2,30.49,WNW,294,0.0,0.0,87,0.00,,,0.00,1777,WeatherCatV1.15B25,2013-12-08 03:37:00,
2013-12-07 22:42:00,23.4,20.1,30.50,NW,320,0.0,0.0,87,0.00,,,0.00,1777,WeatherCatV1.15B25,2013-12-08 03:42:00,
2013-12-07 22:47:00,23.3,20.0,30.50,NW,304,0.0,0.0,87,0.00,,,0.00,1777,WeatherCatV1.15B25,2013-12-08 03:47:00,
2013-12-07 22:52:00,23.3,19.7,30.50,WNW,292,0.0,0.0,86,0.00,,,0.00,1777,WeatherCatV1.15B25,2013-12-08 03:52:00,
2013-12-07 22:57:00,23.3,20.0,30.50,WNW,289,0.0,0.0,87,0.00,,,0.00,1777,WeatherCatV1.15B25,2013-12-08 03:57:00,
2013-12-07 23:02:00,23.2,19.9,30.50,NW,307,0.0,0.0,87,0.00,,,0.00,1777,WeatherCatV1.15B25,2013-12-08 04:02:00,
2013-12-07 23:07:00,23.1,19.8,30.50,NW,309,0.0,0.0,87,0.00,,,0.00,1777,WeatherCatV1.15B25,2013-12-08 04:07:00,
2013-12-07 23:12:00,23.1,19.8,30.51,NW,304,0.0,0.0,87,0.00,,,0.00,1777,WeatherCatV1.15B25,2013-12-08 04:12:00,
2013-12-07 23:17:00,23.0,19.5,30.51,WNW,298,0.0,0.0,86,0.00,,,0.00,1777,WeatherCatV1.15B25,2013-12-08 04:17:00,
2013-12-07 23:22:00,23.0,19.5,30.51,WNW,296,0.0,0.0,86,0.00,,,0.00,1777,WeatherCatV1.15B25,2013-12-08 04:22:00,
2013-12-07 23:27:00,22.9,19.6,30.51,NNW,334,0.0,0.0,87,0.00,,,0.00,1777,WeatherCatV1.15B25,2013-12-08 04:27:00,
2013-12-07 23:32:00,22.8,19.5,30.51,NNW,333,0.0,0.0,87,0.00,,,0.00,1777,WeatherCatV1.15B25,2013-12-08 04:32:00,
2013-12-07 23:37:00,22.7,19.2,30.51,NW,305,0.0,0.0,86,0.00,,,0.00,1779,WeatherCatV1.15B25,2013-12-08 04:37:00,
2013-12-07 23:42:00,22.7,19.2,30.51,WNW,299,0.0,0.0,86,0.00,,,0.00,1779,WeatherCatV1.15B25,2013-12-08 04:42:00,
2013-12-07 23:47:00,22.7,19.2,30.51,WNW,298,0.0,0.0,86,0.00,,,0.00,1779,WeatherCatV1.15B25,2013-12-08 04:47:00,
2013-12-07 23:52:00,22.7,19.2,30.52,WNW,300,0.0,0.0,86,0.00,,,0.00,1779,WeatherCatV1.15B25,2013-12-08 04:52:00,
2013-12-07 23:57:00,22.7,18.9,30.51,NW,307,0.0,0.0,85,0.00,,,0.00,1779,WeatherCatV1.15B25,2013-12-08 04:57:00,